Location: Aït Oumchat
(32.5791°N, 5.2215°W)
Time: 10:58:55
(UTC+00:00)

Daily predictions for brighter satellites

Satellite Brightness Start Highest point End
(mag) Time Altitude Azimuth Time Altitude Azimuth Time Altitude Azimuth
Milstar 3 4.3 19:45:35 10° SSW 19:52:53 33° SE 20:04:43 10° E
H-2A R/B 2.9 19:57:25 10° SE 20:00:58 39° ENE 20:04:32 10° N
Cosmos 407 Rocket 3.5 19:55:53 10° NNW 20:01:02 86° WSW 20:06:08 10° SSE
CSL-04 Rocket 3.8 19:56:55 10° SSE 20:02:24 68° ENE 20:07:55 10° N
Cosmos 1455 Rocket 3.6 19:59:46 10° N 20:03:50 39° E 20:07:53 10° SSE
Cosmos 1190 Rocket 4.1 20:00:05 10° N 20:05:21 65° ENE 20:10:34 10° SSE
Cosmos 1745 Rocket 4.0 19:59:57 10° N 20:06:08 81° E 20:12:22 10° S
Lacrosse 5 rocket 1.3 20:03:39 10° NW 20:07:32 84° SW 20:11:39 10° SE
TSX-5 4.1 20:03:30 10° SSW 20:07:32 82° ESE 20:12:49 10° NNE
ARGOS Delta rocket 3.6 20:05:11 10° NNE 20:09:39 74° E 20:14:01 10° S
Okean 1 Rocket 4.2 20:05:49 10° NNW 20:10:04 47° W 20:14:16 10° SSW
Resurs 01 Rocket 3.0 20:10:21 10° ESE 20:13:52 24° ENE 20:17:25 10° NNE
COSMOS 2406 4.4 20:11:11 10° SSE 20:15:28 22° E 20:19:43 10° NE
ATLAS 2A CENTAUR R/B 2.7 20:18:13 10° WSW 20:19:46 17° SSW 20:20:32 14° SSE
IRS-1C Rocket 4.2 20:15:07 10° S 20:20:22 81° WSW 20:25:39 10° NNW
Cosmos 1833 Rocket 3.0 20:15:37 10° S 20:20:54 45° ESE 20:26:14 10° NE
Okean O Rocket 4.3 20:18:56 10° SW 20:21:49 17° W 20:24:44 10° NW
BREEZE-M DEB (TANK) 4.1 20:20:27 10° W 20:23:04 27° SW 20:28:54 10° SSE
Cosmos 1300 4.2 20:21:04 10° NNW 20:24:34 36° W 20:28:02 10° SSW
Cosmos 1536 Rocket 4.3 20:23:39 10° SSE 20:27:27 32° E 20:31:20 10° NNE
GOES 2 Rocket 3.6 20:23:43 10° WSW 20:27:48 42° SSE 20:32:06 12° E
Okean-O 3.3 20:24:30 10° S 20:28:50 56° W 20:33:12 10° NNW
H-2A R/B 2.1 20:26:07 10° NNE 20:30:36 67° ESE 20:35:04 10° S
Cosmos 1975 Rocket 4.2 20:29:08 10° SSW 20:33:22 45° W 20:37:38 10° N
Cosmos 676 Rocket 4.0 20:29:20 10° NNW 20:34:37 72° ENE 20:39:08 14° SSE
Ariane Rocket 4.0 20:31:50 16° ESE 20:35:08 30° ENE 20:39:32 10° N
ASTRO E2 3.0 20:33:08 10° WSW 20:36:53 44° SSE 20:39:32 17° E
SL-12 R/B (Aux Motor) 3.9 20:39:08 10° NW 20:40:50 40° NE 20:41:21 31° E
Landsat 7 3.8 20:38:37 10° SSE 20:43:18 87° WSW 20:48:02 10° NNW
PSLV R/B 3.9 20:41:50 10° NNE 20:46:01 89° NW 20:50:12 10° SSW
Cosmos 1954 Rocket 4.1 20:42:32 10° NNW 20:47:45 76° WSW 20:52:14 14° S
CZ-4B R/B 0.9 20:47:05 10° NNE 20:49:57 66° E 20:51:31 24° S
ATLAS 2AS CENTAUR R/B 2.6 20:45:15 10° NNW 20:52:11 88° WSW 20:56:56 20° SSE
Cosmos 1709 Rocket 4.4 20:48:06 10° NNW 20:54:17 67° W 21:00:33 10° S
RESURS DK-1 3.4 20:51:47 10° N 20:55:31 32° ENE 20:56:54 25° E
Cosmos 1544 Rocket 3.4 20:52:22 10° N 20:56:44 85° E 20:59:38 21° S
Atlas Centaur 2 4.2 20:54:58 10° WSW 20:57:05 12° SW 20:59:04 10° SSW
Cosmos 1331 Rocket 3.9 20:52:46 10° S 20:58:03 77° ESE 21:03:21 10° NNE
Cosmos 1271 Rocket 2.7 20:54:35 10° N 20:58:31 87° W 21:00:47 24° S
Cosmos 1455 2.1 20:55:01 10° N 20:58:50 88° E 21:00:57 25° S
Cosmos 2082 Rocket 2.7 20:55:36 19° SSE 20:59:06 37° ESE 21:04:18 10° NE
Cosmos 1850 Rocket 4.4 20:57:59 10° N 21:02:57 46° ENE 21:05:08 29° SE
USA 32 4.5 21:00:37 10° SSW 21:05:45 62° W 21:10:56 10° N
MOS 1 4.3 21:01:32 18° SSE 21:05:53 85° WSW 21:11:38 10° NNW
IRAS Rocket 4.1 21:01:24 10° NNE 21:06:58 76° ESE 21:12:28 10° S
Cosmos 2074 Rocket 4.2 21:02:08 10° N 21:08:14 53° E 21:11:20 28° SE
Nadezhda 1 Rocket 4.2 21:06:41 25° SSE 21:09:56 48° E 21:15:43 10° NNE
GEOS 3 Rocket 4.0 21:09:16 28° ESE 21:11:35 48° NE 21:16:29 10° NNW
Yuri Rocket 4.0 21:10:48 10° WSW 21:14:21 27° SSW 21:14:40 26° S
SPOT 1/Viking Rocket 3.5 21:11:55 24° S 21:15:02 83° WSW 21:20:13 10° NNW
Delta 2 Rocket 3.4 21:13:15 10° WNW 21:16:33 50° N 21:17:33 35° ENE
Lacrosse 5 2.6 21:11:53 10° NW 21:16:45 45° WSW 21:19:08 26° S
Tiangong 2.5 21:16:13 10° W 21:18:48 27° SW 21:18:48 27° SW
ERS-1 Rocket 3.9 21:22:07 28° E 21:23:03 30° ENE 21:27:24 10° N
X-37B 2.9 21:23:20 10° NNW 21:24:58 14° NNE 21:25:27 14° NNE
MetOp-B 4.0 21:23:25 34° SSE 21:25:48 85° ENE 21:31:11 10° NNW
Meteor 1-21 Rocket 4.1 21:23:13 24° S 21:26:41 82° E 21:32:22 10° N
Cosmos 1656 3.8 21:22:07 10° NNW 21:27:36 72° WSW 21:30:07 33° S
Cosmos 1302 Rocket 3.9 21:27:47 32° S 21:30:11 71° ESE 21:35:20 10° NNE
Cosmos 192 4.2 21:30:39 26° SSW 21:33:27 88° W 21:38:23 10° NNE
Cosmos 1892 Rocket 4.1 21:38:01 43° ENE 21:38:01 43° ENE 21:41:44 10° NNE
SL-8 R/B 4.4 21:33:25 10° NW 21:38:01 44° NNE 21:39:18 36° ENE
Cosmos 2228 2.8 21:34:50 10° N 21:39:04 77° E 21:39:22 72° SE
ATLAS CENTAUR Rocket 2.9 21:36:56 10° WSW 21:39:32 26° SW 21:39:32 26° SW
Cosmos 2154 Rocket 3.9 21:36:27 10° N 21:42:38 71° E 21:44:32 46° SSE
Cosmos 968 Rocket 4.4 21:41:28 10° N 21:46:10 33° ENE 21:46:30 32° ENE
Cosmos 1697 Rocket 2.6 21:43:05 10° NNW 21:48:43 77° ENE 21:49:50 57° SE
Cosmos 1980 Rocket 3.0 21:44:09 10° N 21:49:21 36° ENE 21:50:07 34° E
ATLAS 5 CENTAUR R/B 2.2 21:50:51 38° NNE 21:50:51 38° NNE 21:53:19 10° NNE
Resurs 01 Rocket 3.5 21:47:50 16° SW 21:50:12 24° W 21:53:50 10° NW
Cosmos 2369 4.0 21:52:20 10° N 21:57:53 49° ENE 21:58:31 47° E
CZ-2C R/B 3.5 21:54:13 10° NNE 21:58:43 87° WNW 21:58:48 85° WSW
COSMOS 2406 4.4 21:53:59 10° SW 21:59:24 42° WNW 22:04:50 10° N
USA 267 3.3 21:53:15 10° NE 21:59:31 50° SE 21:59:31 50° SE
Meteor 2-1 Rocket 4.1 21:58:21 10° N 22:03:53 88° W 22:04:42 66° S
USA 245 4.4 22:09:18 38° W 22:09:18 38° W 22:12:30 10° NNW
Cosmos 1867 4.1 22:09:59 10° NNW 22:15:13 44° ENE 22:15:18 44° ENE
Cosmos 1606 Rocket 4.1 22:13:06 10° NNW 22:16:56 55° WNW 22:16:56 55° WNW
ARIANE 5 R/B 3.3 22:21:46 50° NNE 22:21:46 50° NNE 22:25:09 10° N
Terra 2.0 22:22:57 70° NW 22:22:57 70° NW 22:27:14 10° NNW
Cosmos 2218 Rocket 4.4 22:18:37 10° N 22:24:42 47° E 22:24:42 47° E
SPOT 5 3.5 22:26:09 42° W 22:26:09 42° W 22:29:49 10° NNW
Cosmos 2322 Rocket 4.4 22:23:20 10° NNE 22:25:45 13° NE 22:26:28 12° ENE
GP-B 4.3 22:23:40 10° N 22:26:26 36° NNE 22:26:26 36° NNE
Aurora 2 Rocket 4.3 22:21:42 10° W 22:30:54 49° SSW 22:30:54 49° SSW
Cosmos 2344 4.5 22:23:22 10° NNW 22:33:20 82° ENE 22:38:18 46° SE
Milstar 3 4.4 22:26:12 10° WSW 22:37:25 72° SSE 23:00:31 10° E
Cosmos 1992 Rocket 4.3 22:37:42 60° WNW 22:37:42 60° WNW 22:42:53 10° N
Cosmos 2278 4.1 22:34:12 10° N 22:39:19 54° NE 22:39:19 54° NE
Cosmos 2082 Rocket 4.2 22:38:34 10° WSW 22:43:12 25° WNW 22:47:51 10° N
Cosmos 2341 Rocket 3.9 22:37:45 10° N 22:44:03 80° W 22:44:11 80° WSW
ASTEX 1 4.0 22:47:08 10° N 22:51:09 54° NNW 22:51:09 54° NNW
Cosmos 2360 Rocket 4.3 22:57:01 10° NNE 23:00:22 16° ENE 23:00:31 16° ENE
Cosmos 2181 Rocket 4.3 23:01:56 55° W 23:02:13 56° W 23:08:19 10° N
Nadezhda 3 Rocket 4.3 23:28:02 59° NNE 23:28:02 59° NNE 23:32:57 10° N
Cosmos 1980 Rocket 3.9 23:28:34 10° NW 23:31:53 23° W 23:31:53 23° W
SL-16 R/B 3.0 23:30:45 10° NNW 23:34:48 48° N 23:34:48 48° N
USA 267 4.3 23:36:24 10° NNE 23:42:23 40° NW 23:46:45 18° W
SJ 16-02 3.6 23:38:47 10° N 23:40:31 23° N 23:40:31 23° N
